Tracking 23758 objects as of 28-Oct-2021
HD Live streaming from Space Station
objects crossing your sky now

SL-8 DEB

Track SL-8 DEB now!
10-day predictions


NORAD ID: 21252
Int'l Code: 1991-009BK
Perigee: 1,479.2 km
Apogee: 1,679.1 km
Inclination: 74.1 °
Period: 117.6 minutes
Semi major axis: 7950 km
RCS: 0.066 m2 (small)
Launch date: February 12, 1991
Source: Commonwealth of Independent States (former USSR) (CIS)
Launch site: PLESETSK MISSILE AND SPACE COMPLEX (PKMTR)

Note: This is SATELLITE DEBRIS
aabbcc
Your satellite tracking list
Your tracking list is empty




NASA's NSSDC Master Catalog

Two Line Element Set (TLE):
1 21252U 91009BK  21300.41748260  .00000029  00000-0  38855-3 0  9992
2 21252  74.1037  94.8581 0125751 316.5282  70.2359 12.24726922369617
Source of the keplerian elements: AFSPC